User: anonymous   Login
Location: Calvatone
(45.1167°N, 10.4333°E)
Time: 18:08:46
(UTC+00:00)
Language:

DMSP 5D-2 F13 DEB - Orbit

View from above orbital plane
View from above orbital plane
View from above satellite
View from above satellite

Ground track
Ground track

The orbit data is extracted from the following two-line orbital elements,

1 40575U 95015EJ  24146.35597911  .00008524  00000-0  29440-2 0  9998
2 40575  98.6236 177.3250 0013671 277.6256  82.3377 14.35980143475694
Epoch (UTC): 25 May 2024 08:32:36
Eccentricity: 0.0013671
inclination: 98.6236°
perigee height: 762 km
apogee height: 781 km
right ascension of ascending node: 177.3250°
argument of perigee: 277.6256°
revolutions per day: 14.35980143
mean anomaly at epoch: 82.3377°
orbit number at epoch: 47569

The dashed part of the orbit path shows where the satellite is in the earth's shadow,  

DLR